Home > Weather > Porsgrunn > Past weeks

Flag for Norway Past Weather in Porsgrunn, Norway — Yesterday and Last 2 Weeks

Now
51 °F

Cool.


Feels Like: 50 °F
Forecast: 46 / 69 °F
Wind: 3 mph from Northeast

Location: Jomfruland Fyr

Current Time: May 26, 2016 at 4:56:48 AM

Latest Report: May 26, 2016 at 4:00 AM


Visibility: N/A

Pressure: 30.13 "Hg

Humidity: 63%

Dew Point: 38 °F

Location of PorsgrunnLocation

Past Weather in Porsgrunn — Graph

°F

Porsgrunn Temperature Yesterday

Maximum temperature yesterday: 62 °F (at 2:00 PM)
Minimum temperature yesterday: 50 °F (at 11:00 PM)
Average temperature yesterday: 56 °F

High & Low Weather Summary for the Past Weeks

 TemperatureHumidityPressure
High63 °F (May 11, 7:00 PM)97% (May 20, 3:00 AM)30.16 "Hg (May 20, 3:00 AM)
Low44 °F (May 14, 6:00 AM)28% (May 15, 2:00 PM)29.65 "Hg (May 13, 6:00 PM)
Average52 °F74%29.83 "Hg
* Reported May 11 3:00 AM — May 26 3:00 AM, Porsgrunn, Weather by CustomWeather, © 2016

Note: Actual official high and low records may vary slightly from our data, if they occured in-between our weather recording intervals... More about our weather records

Advertising

Porsgrunn Weather History for the Previous 24 Hours

Scroll right to see more
 ConditionsComfort  
Time TempWeatherWind HumidityBarometerVisibility
3:00 AM
Thu, May 26
49 °FCool.1 mph70%30.13 "HgN/A
2:00 AM51 °FCool.2 mph66%30.13 "HgN/A
1:00 AM52 °FCool.2 mph73%30.13 "HgN/A
12:00 AM48 °FCool.2 mph86%30.11 "HgN/A
11:00 PM
Wed, May 25
50 °FCool.1 mph81%30.11 "HgN/A
10:00 PM52 °FCool.1 mph73%30.11 "HgN/A
9:00 PM58 °FCool.1 mph61%30.10 "HgN/A
8:00 PM59 °FRefreshingly cool.1 mph57%30.10 "HgN/A
7:00 PM59 °FCool.2 mph65%30.10 "HgN/A
6:00 PM59 °FCool.3 mph61%30.11 "HgN/A
5:00 PM59 °FCool.5 mph61%30.11 "HgN/A
4:00 PM59 °FCool.6 mph60%30.12 "HgN/A
3:00 PM61 °FRefreshingly cool.6 mph53%30.13 "HgN/A
2:00 PM62 °FRefreshingly cool.6 mph43%30.13 "HgN/A
1:00 PM60 °FRefreshingly cool.7 mph49%30.14 "HgN/A
12:00 PM59 °FRefreshingly cool.7 mph49%30.14 "HgN/A
11:00 AM58 °FRefreshingly cool.7 mph52%30.15 "HgN/A
10:00 AM56 °FRefreshingly cool.8 mph57%30.16 "HgN/A
9:00 AM54 °FCool.10 mph58%30.15 "HgN/A
8:00 AM54 °FCool.10 mph59%30.15 "HgN/A
7:00 AM53 °FCool.9 mph63%30.14 "HgN/A
6:00 AM52 °FCool.10 mph65%30.13 "HgN/A
5:00 AM52 °FCool.9 mph65%30.12 "HgN/A
4:00 AM53 °FCool.10 mph66%30.11 "HgN/A
Weather by CustomWeather, © 2016

See weather overviewHow to use our weather pages